Time,TemperatureF,DewpointF,PressureIn,WindDirection,WindDirectionDegrees,WindSpeedMPH,WindSpeedGustMPH,Humidity,HourlyPrecipIn,Conditions,Clouds,dailyrainin,SoftwareType,DateUTC
2013-09-06 00:01:00,56.1,55.6,30.14,North,356,0.0,0.0,98,0.00,,,0.01,meteohub,2013-09-06 04:01:00,
2013-09-06 00:02:00,56.1,55.6,30.14,North,357,0.0,0.0,98,0.00,,,0.01,meteohub,2013-09-06 04:02:00,
2013-09-06 00:07:00,55.9,55.4,30.14,North,358,0.0,0.0,98,0.00,,,0.00,meteohub,2013-09-06 04:07:00,
2013-09-06 00:12:00,55.9,55.4,30.14,NNW,346,0.0,1.0,98,0.00,,,0.00,meteohub,2013-09-06 04:12:00,
2013-09-06 00:17:00,55.8,54.9,30.14,NNW,346,0.0,1.0,97,0.00,,,0.00,meteohub,2013-09-06 04:17:00,
2013-09-06 00:22:00,55.6,55.0,30.14,NNW,338,0.0,1.0,98,0.00,,,0.00,meteohub,2013-09-06 04:22:00,
2013-09-06 00:27:00,55.6,55.0,30.14,North,9,0.0,1.0,98,0.00,,,0.00,meteohub,2013-09-06 04:27:00,
2013-09-06 00:32:00,55.4,54.9,30.14,NNW,333,0.0,1.0,98,0.00,,,0.00,meteohub,2013-09-06 04:32:00,
2013-09-06 00:37:00,55.2,54.7,30.14,North,358,0.0,1.0,98,0.00,,,0.00,meteohub,2013-09-06 04:37:00,
2013-09-06 00:42:00,55.0,54.5,30.14,NNE,20,0.0,1.0,98,0.00,,,0.00,meteohub,2013-09-06 04:42:00,
2013-09-06 00:47:00,55.0,54.5,30.14,NNE,20,0.0,1.0,98,0.00,,,0.00,meteohub,2013-09-06 04:47:00,
2013-09-06 00:52:00,54.9,54.3,30.15,North,356,0.0,1.0,98,0.00,,,0.00,meteohub,2013-09-06 04:52:00,
2013-09-06 00:57:00,54.9,54.3,30.15,North,356,0.0,0.0,98,0.00,,,0.00,meteohub,2013-09-06 04:57:00,
2013-09-06 01:02:00,54.9,54.3,30.15,North,350,0.0,0.0,98,0.00,,,0.00,meteohub,2013-09-06 05:02:00,
2013-09-06 01:07:00,54.9,54.3,30.15,North,11,0.0,1.0,98,0.00,,,0.00,meteohub,2013-09-06 05:07:00,
2013-09-06 01:12:00,54.7,54.1,30.15,NNE,27,0.0,2.0,98,0.00,,,0.00,meteohub,2013-09-06 05:12:00,
2013-09-06 01:17:00,54.7,54.1,30.15,NNE,27,0.0,2.0,98,0.00,,,0.00,meteohub,2013-09-06 05:17:00,
2013-09-06 01:22:00,54.5,54.0,30.15,North,11,0.0,1.0,98,0.00,,,0.00,meteohub,2013-09-06 05:22:00,
2013-09-06 01:27:00,54.3,53.8,30.15,North,352,0.0,1.0,98,0.00,,,0.00,meteohub,2013-09-06 05:27:00,
2013-09-06 01:32:00,54.3,53.8,30.15,NNW,342,0.0,1.0,98,0.00,,,0.00,meteohub,2013-09-06 05:32:00,
2013-09-06 01:37:00,54.1,53.6,30.16,NW,323,0.0,1.0,98,0.00,,,0.00,meteohub,2013-09-06 05:37:00,
2013-09-06 01:42:00,54.1,53.6,30.16,NNW,333,2.0,2.0,98,0.00,,,0.00,meteohub,2013-09-06 05:42:00,
2013-09-06 01:47:00,54.0,53.4,30.16,NNW,337,2.0,5.0,98,0.00,,,0.00,meteohub,2013-09-06 05:47:00,
2013-09-06 01:52:00,54.0,53.4,30.16,North,352,2.0,5.0,98,0.00,,,0.00,meteohub,2013-09-06 05:52:00,
2013-09-06 01:57:00,53.8,53.2,30.16,NNW,337,2.0,4.0,98,0.00,,,0.00,meteohub,2013-09-06 05:57:00,
2013-09-06 02:02:00,53.6,53.1,30.17,NNW,342,2.0,5.0,98,0.00,,,0.00,meteohub,2013-09-06 06:02:00,
2013-09-06 02:07:00,53.4,52.5,30.17,NNW,330,2.0,7.0,97,0.00,,,0.00,meteohub,2013-09-06 06:07:00,
2013-09-06 02:12:00,53.2,52.3,30.17,WNW,295,3.0,7.0,97,0.00,,,0.00,meteohub,2013-09-06 06:12:00,
2013-09-06 02:17:00,53.1,52.0,30.17,North,11,5.0,7.0,96,0.00,,,0.00,meteohub,2013-09-06 06:17:00,
2013-09-06 02:22:00,53.1,51.4,30.17,North,7,5.0,7.0,94,0.00,,,0.00,meteohub,2013-09-06 06:22:00,
2013-09-06 02:27:00,53.1,51.1,30.17,NNW,340,4.0,9.0,93,0.00,,,0.00,meteohub,2013-09-06 06:27:00,
2013-09-06 02:32:00,52.9,50.5,30.17,NNE,12,6.0,9.0,92,0.00,,,0.00,meteohub,2013-09-06 06:32:00,
2013-09-06 02:37:00,52.9,50.4,30.17,North,356,3.0,9.0,91,0.00,,,0.00,meteohub,2013-09-06 06:37:00,
2013-09-06 02:42:00,52.9,50.0,30.17,North,352,3.0,7.0,90,0.00,,,0.00,meteohub,2013-09-06 06:42:00,
2013-09-06 02:47:00,52.5,49.6,30.17,NNW,344,3.0,7.0,90,0.00,,,0.00,meteohub,2013-09-06 06:47:00,
2013-09-06 02:52:00,52.5,49.5,30.17,NNW,336,4.0,7.0,89,0.00,,,0.00,meteohub,2013-09-06 06:52:00,
2013-09-06 02:57:00,52.3,49.3,30.17,NNW,337,4.0,7.0,89,0.00,,,0.00,meteohub,2013-09-06 06:57:00,
2013-09-06 03:02:00,52.2,49.1,30.17,NW,321,3.0,6.0,89,0.00,,,0.00,meteohub,2013-09-06 07:02:00,
2013-09-06 03:07:00,52.0,48.9,30.18,NNW,330,0.0,6.0,89,0.00,,,0.00,meteohub,2013-09-06 07:07:00,
2013-09-06 03:12:00,51.8,48.7,30.18,North,349,3.0,6.0,89,0.00,,,0.00,meteohub,2013-09-06 07:12:00,
2013-09-06 03:17:00,51.8,48.4,30.17,NW,318,4.0,6.0,88,0.00,,,0.00,meteohub,2013-09-06 07:17:00,
2013-09-06 03:22:00,51.6,48.2,30.17,North,356,2.0,7.0,88,0.00,,,0.00,meteohub,2013-09-06 07:22:00,
2013-09-06 03:27:00,51.6,47.8,30.18,North,354,3.0,9.0,87,0.00,,,0.00,meteohub,2013-09-06 07:27:00,
2013-09-06 03:32:00,51.6,47.5,30.18,NNW,340,4.0,9.0,86,0.00,,,0.00,meteohub,2013-09-06 07:32:00,
2013-09-06 03:37:00,51.4,47.5,30.18,NW,324,4.0,8.0,86,0.00,,,0.00,meteohub,2013-09-06 07:37:00,
2013-09-06 03:42:00,51.3,47.5,30.19,NNE,12,4.0,6.0,87,0.00,,,0.00,meteohub,2013-09-06 07:42:00,
2013-09-06 03:47:00,51.1,47.3,30.19,NNW,330,2.0,6.0,87,0.00,,,0.00,meteohub,2013-09-06 07:47:00,
2013-09-06 03:52:00,50.9,47.1,30.18,North,352,2.0,5.0,87,0.00,,,0.00,meteohub,2013-09-06 07:52:00,
2013-09-06 03:57:00,50.7,47.3,30.19,North,352,4.0,5.0,88,0.00,,,0.00,meteohub,2013-09-06 07:57:00,
2013-09-06 04:02:00,50.7,47.3,30.18,North,359,6.0,6.0,88,0.00,,,0.00,meteohub,2013-09-06 08:02:00,
2013-09-06 04:07:00,50.5,47.1,30.18,NW,326,2.0,6.0,88,0.00,,,0.00,meteohub,2013-09-06 08:07:00,
2013-09-06 04:12:00,50.5,46.8,30.18,North,9,3.0,6.0,87,0.00,,,0.00,meteohub,2013-09-06 08:12:00,
2013-09-06 04:17:00,50.5,46.6,30.18,NNW,328,1.0,6.0,86,0.00,,,0.00,meteohub,2013-09-06 08:17:00,
2013-09-06 04:22:00,50.5,46.6,30.19,NW,320,4.0,6.0,86,0.00,,,0.00,meteohub,2013-09-06 08:22:00,
2013-09-06 04:27:00,50.4,46.4,30.19,NW,324,3.0,6.0,86,0.00,,,0.00,meteohub,2013-09-06 08:27:00,
2013-09-06 04:32:00,50.4,46.6,30.19,NNW,330,4.0,6.0,87,0.00,,,0.00,meteohub,2013-09-06 08:32:00,
2013-09-06 04:37:00,50.2,46.4,30.19,NW,324,2.0,6.0,87,0.00,,,0.00,meteohub,2013-09-06 08:37:00,
2013-09-06 04:42:00,50.0,46.2,30.19,North,350,2.0,5.0,87,0.00,,,0.00,meteohub,2013-09-06 08:42:00,
2013-09-06 04:47:00,49.8,46.0,30.20,NW,322,3.0,5.0,87,0.00,,,0.00,meteohub,2013-09-06 08:47:00,
2013-09-06 04:52:00,49.8,46.0,30.20,NNE,13,3.0,5.0,87,0.00,,,0.00,meteohub,2013-09-06 08:52:00,
2013-09-06 04:57:00,49.6,45.9,30.20,NNW,328,3.0,5.0,87,0.00,,,0.00,meteohub,2013-09-06 08:57:00,
2013-09-06 05:02:00,49.6,45.7,30.20,NW,322,3.0,6.0,86,0.00,,,0.00,meteohub,2013-09-06 09:02:00,
2013-09-06 05:07:00,49.6,45.3,30.20,North,6,4.0,7.0,85,0.00,,,0.00,meteohub,2013-09-06 09:07:00,
2013-09-06 05:12:00,49.6,45.3,30.20,North,351,3.0,7.0,85,0.00,,,0.00,meteohub,2013-09-06 09:12:00,
2013-09-06 05:17:00,49.6,45.3,30.20,North,350,4.0,7.0,85,0.00,,,0.00,meteohub,2013-09-06 09:17:00,
2013-09-06 05:22:00,49.6,45.0,30.20,NNW,342,4.0,6.0,84,0.00,,,0.00,meteohub,2013-09-06 09:22:00,
2013-09-06 05:27:00,49.8,45.1,30.20,NW,326,4.0,7.0,84,0.00,,,0.00,meteohub,2013-09-06 09:27:00,
2013-09-06 05:32:00,49.8,44.8,30.20,NNW,348,3.0,7.0,83,0.00,,,0.00,meteohub,2013-09-06 09:32:00,
2013-09-06 05:37:00,49.6,44.8,30.21,NNW,347,5.0,7.0,83,0.00,,,0.00,meteohub,2013-09-06 09:37:00,
2013-09-06 05:42:00,49.6,44.8,30.21,NNW,340,3.0,7.0,83,0.00,,,0.00,meteohub,2013-09-06 09:42:00,
2013-09-06 05:48:00,49.5,44.6,30.21,NNW,344,3.0,7.0,83,0.00,,,0.00,meteohub,2013-09-06 09:48:00,
2013-09-06 05:53:00,49.5,44.6,30.21,NNW,344,3.0,7.0,83,0.00,,,0.00,meteohub,2013-09-06 09:53:00,
2013-09-06 05:58:00,49.3,44.4,30.21,NNW,333,3.0,5.0,83,0.00,,,0.00,meteohub,2013-09-06 09:58:00,
2013-09-06 06:03:00,49.3,44.4,30.21,NNW,348,3.0,5.0,83,0.00,,,0.00,meteohub,2013-09-06 10:03:00,
2013-09-06 06:08:00,49.3,44.4,30.21,NNE,16,3.0,5.0,83,0.00,,,0.00,meteohub,2013-09-06 10:08:00,
2013-09-06 06:13:00,49.3,44.4,30.21,NW,324,2.0,6.0,83,0.00,,,0.00,meteohub,2013-09-06 10:13:00,
2013-09-06 06:18:00,49.3,44.4,30.22,NNW,328,2.0,7.0,83,0.00,,,0.00,meteohub,2013-09-06 10:18:00,
2013-09-06 06:23:00,49.1,44.4,30.22,NNW,333,2.0,7.0,84,0.00,,,0.00,meteohub,2013-09-06 10:23:00,
2013-09-06 06:28:00,48.9,44.2,30.22,NNE,26,3.0,7.0,84,0.00,,,0.00,meteohub,2013-09-06 10:28:00,
2013-09-06 06:33:00,48.9,44.2,30.22,NNW,346,2.0,6.0,84,0.00,,,0.00,meteohub,2013-09-06 10:33:00,
2013-09-06 06:38:00,48.9,44.2,30.22,NNW,335,5.0,6.0,84,0.00,,,0.00,meteohub,2013-09-06 10:38:00,
2013-09-06 06:43:00,49.3,44.6,30.23,NNW,330,4.0,6.0,84,0.00,,,0.00,meteohub,2013-09-06 10:43:00,
2013-09-06 06:48:00,49.6,44.8,30.23,NNW,330,3.0,6.0,83,0.00,,,0.00,meteohub,2013-09-06 10:48:00,
2013-09-06 06:53:00,49.8,44.6,30.22,NNW,342,5.0,6.0,82,0.00,,,0.00,meteohub,2013-09-06 10:53:00,
2013-09-06 06:58:00,50.2,44.6,30.23,NW,322,3.0,7.0,81,0.00,,,0.00,meteohub,2013-09-06 10:58:00,
2013-09-06 07:03:00,50.4,44.8,30.23,NNW,328,3.0,7.0,81,0.00,,,0.00,meteohub,2013-09-06 11:03:00,
2013-09-06 07:08:00,50.5,44.6,30.23,NNW,330,3.0,7.0,80,0.00,,,0.00,meteohub,2013-09-06 11:08:00,
2013-09-06 07:13:00,50.7,44.4,30.23,NNE,13,5.0,7.0,79,0.00,,,0.00,meteohub,2013-09-06 11:13:00,
2013-09-06 07:18:00,51.1,44.4,30.23,NNW,334,1.0,7.0,78,0.00,,,0.00,meteohub,2013-09-06 11:18:00,
2013-09-06 07:23:00,51.4,44.8,30.23,North,353,5.0,7.0,78,0.00,,,0.00,meteohub,2013-09-06 11:23:00,
2013-09-06 07:28:00,51.6,44.6,30.23,NW,318,7.0,7.0,77,0.00,,,0.00,meteohub,2013-09-06 11:28:00,
2013-09-06 07:33:00,52.0,45.0,30.24,NNW,328,1.0,8.0,77,0.00,,,0.00,meteohub,2013-09-06 11:33:00,
2013-09-06 07:38:00,52.3,45.0,30.24,NNW,328,0.0,8.0,76,0.00,,,0.00,meteohub,2013-09-06 11:38:00,
2013-09-06 07:43:00,52.7,45.0,30.24,NNW,344,1.0,8.0,75,0.00,,,0.00,meteohub,2013-09-06 11:43:00,
2013-09-06 07:48:00,53.2,45.1,30.24,NNW,347,3.0,8.0,74,0.00,,,0.00,meteohub,2013-09-06 11:48:00,
2013-09-06 07:53:00,53.6,45.1,30.24,NW,322,4.0,7.0,73,0.00,,,0.00,meteohub,2013-09-06 11:53:00,
2013-09-06 07:58:00,54.1,45.3,30.23,NNW,346,4.0,9.0,72,0.00,,,0.00,meteohub,2013-09-06 11:58:00,
2013-09-06 08:03:00,54.7,45.5,30.24,North,7,10.0,10.0,71,0.00,,,0.00,meteohub,2013-09-06 12:03:00,
2013-09-06 08:08:00,55.0,45.5,30.24,NNW,328,5.0,10.0,70,0.00,,,0.00,meteohub,2013-09-06 12:08:00,
2013-09-06 08:13:00,55.2,45.7,30.24,North,11,3.0,10.0,70,0.00,,,0.00,meteohub,2013-09-06 12:13:00,
2013-09-06 08:18:00,55.6,45.5,30.24,NNW,340,5.0,10.0,69,0.00,,,0.00,meteohub,2013-09-06 12:18:00,
2013-09-06 08:23:00,55.8,45.7,30.24,NNW,332,3.0,10.0,69,0.00,,,0.00,meteohub,2013-09-06 12:23:00,
2013-09-06 08:28:00,56.1,46.0,30.24,NNW,344,1.0,10.0,69,0.00,,,0.00,meteohub,2013-09-06 12:28:00,
2013-09-06 08:33:00,56.7,46.6,30.24,NNW,342,3.0,10.0,69,0.00,,,0.00,meteohub,2013-09-06 12:33:00,
2013-09-06 08:38:00,57.0,46.6,30.24,NW,324,2.0,10.0,68,0.00,,,0.00,meteohub,2013-09-06 12:38:00,
2013-09-06 08:43:00,57.6,46.8,30.25,NNE,27,3.0,8.0,67,0.00,,,0.00,meteohub,2013-09-06 12:43:00,
2013-09-06 08:48:00,57.7,46.9,30.25,North,352,3.0,8.0,67,0.00,,,0.00,meteohub,2013-09-06 12:48:00,
2013-09-06 08:53:00,57.9,46.6,30.25,NNW,348,6.0,8.0,66,0.00,,,0.00,meteohub,2013-09-06 12:53:00,
2013-09-06 08:58:00,58.3,46.9,30.25,North,6,2.0,9.0,66,0.00,,,0.00,meteohub,2013-09-06 12:58:00,
2013-09-06 09:03:00,58.5,46.8,30.25,NNE,20,6.0,10.0,65,0.00,,,0.00,meteohub,2013-09-06 13:03:00,
2013-09-06 09:08:00,58.8,47.1,30.25,North,5,3.0,10.0,65,0.00,,,0.00,meteohub,2013-09-06 13:08:00,
2013-09-06 09:13:00,59.4,47.7,30.25,NE,49,5.0,10.0,65,0.00,,,0.00,meteohub,2013-09-06 13:13:00,
2013-09-06 09:18:00,59.7,47.5,30.25,NNE,31,7.0,10.0,64,0.00,,,0.00,meteohub,2013-09-06 13:18:00,
2013-09-06 09:23:00,59.5,46.6,30.25,North,5,0.0,10.0,62,0.00,,,0.00,meteohub,2013-09-06 13:23:00,
2013-09-06 09:28:00,60.1,47.5,30.25,ENE,58,8.0,12.0,63,0.00,,,0.00,meteohub,2013-09-06 13:28:00,
2013-09-06 09:33:00,60.1,46.9,30.25,ENE,65,5.0,12.0,62,0.00,,,0.00,meteohub,2013-09-06 13:33:00,
2013-09-06 09:38:00,60.4,46.9,30.25,NNW,330,8.0,14.0,61,0.00,,,0.00,meteohub,2013-09-06 13:38:00,
2013-09-06 09:43:00,60.6,46.6,30.25,NNE,32,5.0,14.0,60,0.00,,,0.00,meteohub,2013-09-06 13:43:00,
2013-09-06 09:48:00,61.0,47.5,30.25,NE,42,0.0,11.0,61,0.00,,,0.00,meteohub,2013-09-06 13:48:00,
2013-09-06 09:53:00,61.5,48.4,30.25,NW,312,2.0,10.0,62,0.00,,,0.00,meteohub,2013-09-06 13:53:00,
2013-09-06 09:58:00,61.7,47.3,30.25,NNE,31,6.0,10.0,59,0.00,,,0.00,meteohub,2013-09-06 13:58:00,
2013-09-06 10:03:00,61.2,47.7,30.25,NNW,346,5.0,8.0,61,0.00,,,0.00,meteohub,2013-09-06 14:03:00,
2013-09-06 10:08:00,61.5,47.5,30.25,NE,56,4.0,9.0,60,0.00,,,0.00,meteohub,2013-09-06 14:08:00,
2013-09-06 10:13:00,61.9,46.9,30.24,NE,49,6.0,9.0,58,0.00,,,0.00,meteohub,2013-09-06 14:13:00,
2013-09-06 10:18:00,62.1,48.0,30.24,NNE,31,0.0,9.0,60,0.00,,,0.00,meteohub,2013-09-06 14:18:00,
2013-09-06 10:23:00,62.4,47.8,30.25,East,86,0.0,9.0,59,0.00,,,0.00,meteohub,2013-09-06 14:23:00,
2013-09-06 10:28:00,63.0,47.5,30.25,NE,53,2.0,8.0,57,0.00,,,0.00,meteohub,2013-09-06 14:28:00,
2013-09-06 10:33:00,63.0,46.9,30.25,NW,309,0.0,7.0,56,0.00,,,0.00,meteohub,2013-09-06 14:33:00,
2013-09-06 10:38:00,63.1,46.8,30.24,NW,314,4.0,8.0,55,0.00,,,0.00,meteohub,2013-09-06 14:38:00,
2013-09-06 10:43:00,63.1,46.8,30.24,NNW,335,5.0,8.0,55,0.00,,,0.00,meteohub,2013-09-06 14:43:00,
2013-09-06 10:48:00,63.1,45.7,30.25,North,11,7.0,10.0,53,0.00,,,0.00,meteohub,2013-09-06 14:48:00,
2013-09-06 10:53:00,63.3,45.9,30.25,NW,321,3.0,12.0,53,0.00,,,0.00,meteohub,2013-09-06 14:53:00,
2013-09-06 10:58:00,63.7,46.8,30.24,ENE,65,2.0,12.0,54,0.00,,,0.00,meteohub,2013-09-06 14:58:00,
2013-09-06 11:03:00,63.7,45.7,30.24,ENE,68,4.0,12.0,52,0.00,,,0.00,meteohub,2013-09-06 15:03:00,
2013-09-06 11:08:00,63.9,45.3,30.24,ENE,70,3.0,7.0,51,0.00,,,0.00,meteohub,2013-09-06 15:08:00,
2013-09-06 11:14:00,63.9,45.9,30.24,ESE,102,5.0,9.0,52,0.00,,,0.00,meteohub,2013-09-06 15:14:00,
2013-09-06 11:19:00,63.5,45.5,30.25,ESE,120,2.0,9.0,52,0.00,,,0.00,meteohub,2013-09-06 15:19:00,
2013-09-06 11:24:00,63.9,46.4,30.24,ESE,113,2.0,10.0,53,0.00,,,0.00,meteohub,2013-09-06 15:24:00,
2013-09-06 11:29:00,63.7,45.7,30.24,ENE,68,3.0,10.0,52,0.00,,,0.00,meteohub,2013-09-06 15:29:00,
2013-09-06 11:34:00,64.0,46.6,30.24,East,80,2.0,10.0,53,0.00,,,0.00,meteohub,2013-09-06 15:34:00,
2013-09-06 11:39:00,64.4,45.9,30.24,NW,316,4.0,8.0,51,0.00,,,0.00,meteohub,2013-09-06 15:39:00,
2013-09-06 11:44:00,64.6,46.0,30.24,WSW,255,3.0,7.0,51,0.00,,,0.00,meteohub,2013-09-06 15:44:00,
2013-09-06 11:49:00,64.9,46.4,30.24,SSW,203,0.0,7.0,51,0.00,,,0.00,meteohub,2013-09-06 15:49:00,
2013-09-06 11:54:00,66.2,46.4,30.23,ENE,74,0.0,7.0,49,0.00,,,0.00,meteohub,2013-09-06 15:54:00,
2013-09-06 11:59:00,65.5,46.9,30.23,East,89,5.0,6.0,51,0.00,,,0.00,meteohub,2013-09-06 15:59:00,
2013-09-06 12:04:00,65.1,46.0,30.23,NNE,23,0.0,11.0,50,0.00,,,0.00,meteohub,2013-09-06 16:04:00,
2013-09-06 12:09:00,65.5,46.9,30.23,ENE,60,2.0,11.0,51,0.00,,,0.00,meteohub,2013-09-06 16:09:00,
2013-09-06 12:14:00,65.5,46.4,30.23,SE,125,2.0,11.0,50,0.00,,,0.00,meteohub,2013-09-06 16:14:00,
2013-09-06 12:19:00,65.5,46.9,30.23,East,101,6.0,6.0,51,0.00,,,0.00,meteohub,2013-09-06 16:19:00,
2013-09-06 12:24:00,65.1,46.6,30.23,East,96,6.0,8.0,51,0.00,,,0.00,meteohub,2013-09-06 16:24:00,
2013-09-06 12:29:00,65.3,46.2,30.22,ESE,103,4.0,8.0,50,0.00,,,0.00,meteohub,2013-09-06 16:29:00,
2013-09-06 12:34:00,66.0,46.8,30.22,ENE,76,5.0,9.0,50,0.00,,,0.00,meteohub,2013-09-06 16:34:00,
2013-09-06 12:39:00,65.1,46.6,30.22,NE,56,5.0,9.0,51,0.00,,,0.00,meteohub,2013-09-06 16:39:00,
2013-09-06 12:44:00,64.9,46.4,30.22,ESE,122,3.0,10.0,51,0.00,,,0.00,meteohub,2013-09-06 16:44:00,
2013-09-06 12:49:00,64.9,46.9,30.22,ESE,108,7.0,10.0,52,0.00,,,0.00,meteohub,2013-09-06 16:49:00,
2013-09-06 12:54:00,64.9,47.5,30.22,ESE,116,6.0,11.0,53,0.00,,,0.00,meteohub,2013-09-06 16:54:00,
2013-09-06 12:59:00,64.9,47.5,30.22,ESE,108,4.0,13.0,53,0.00,,,0.00,meteohub,2013-09-06 16:59:00,
2013-09-06 13:04:00,65.1,46.6,30.22,East,89,6.0,13.0,51,0.00,,,0.00,meteohub,2013-09-06 17:04:00,
2013-09-06 13:09:00,64.9,46.9,30.22,ENE,72,0.0,13.0,52,0.00,,,0.00,meteohub,2013-09-06 17:09:00,
2013-09-06 13:14:00,65.1,48.0,30.22,ESE,122,5.0,8.0,54,0.00,,,0.00,meteohub,2013-09-06 17:14:00,
2013-09-06 13:19:00,65.1,48.0,30.22,SSE,160,4.0,8.0,54,0.00,,,0.00,meteohub,2013-09-06 17:19:00,
2013-09-06 13:24:00,65.5,48.4,30.22,SSE,148,3.0,8.0,54,0.00,,,0.00,meteohub,2013-09-06 17:24:00,
2013-09-06 13:29:00,65.8,48.7,30.22,SE,137,2.0,9.0,54,0.00,,,0.00,meteohub,2013-09-06 17:29:00,
2013-09-06 13:34:00,65.8,48.2,30.22,SE,142,6.0,9.0,53,0.00,,,0.00,meteohub,2013-09-06 17:34:00,
2013-09-06 13:39:00,65.7,47.5,30.22,SE,124,3.0,9.0,52,0.00,,,0.00,meteohub,2013-09-06 17:39:00,
2013-09-06 13:44:00,66.0,47.3,30.22,WSW,255,0.0,7.0,51,0.00,,,0.00,meteohub,2013-09-06 17:44:00,
2013-09-06 13:49:00,66.6,48.4,30.22,SSW,205,5.0,7.0,52,0.00,,,0.00,meteohub,2013-09-06 17:49:00,
2013-09-06 13:54:00,66.2,48.6,30.22,SSW,205,7.0,8.0,53,0.00,,,0.00,meteohub,2013-09-06 17:54:00,
2013-09-06 13:59:00,65.8,48.2,30.22,South,180,6.0,8.0,53,0.00,,,0.00,meteohub,2013-09-06 17:59:00,
2013-09-06 14:04:00,65.7,48.0,30.22,South,172,6.0,9.0,53,0.00,,,0.00,meteohub,2013-09-06 18:04:00,
2013-09-06 14:09:00,65.5,47.8,30.21,South,190,8.0,9.0,53,0.00,,,0.00,meteohub,2013-09-06 18:09:00,
2013-09-06 14:14:00,64.9,46.4,30.21,SSE,160,3.0,10.0,51,0.00,,,0.00,meteohub,2013-09-06 18:14:00,
2013-09-06 14:19:00,65.1,47.5,30.21,SSW,197,8.0,12.0,53,0.00,,,0.00,meteohub,2013-09-06 18:19:00,
2013-09-06 14:24:00,64.9,48.4,30.21,SSW,211,6.0,12.0,55,0.00,,,0.00,meteohub,2013-09-06 18:24:00,
2013-09-06 14:29:00,64.6,48.0,30.21,SSW,204,7.0,12.0,55,0.00,,,0.00,meteohub,2013-09-06 18:29:00,
2013-09-06 14:34:00,64.2,48.2,30.21,South,176,6.0,12.0,56,0.00,,,0.00,meteohub,2013-09-06 18:34:00,
2013-09-06 14:39:00,64.2,48.7,30.21,SSW,205,7.0,10.0,57,0.00,,,0.00,meteohub,2013-09-06 18:39:00,
2013-09-06 14:44:00,64.2,49.1,30.21,SSW,207,6.0,10.0,58,0.00,,,0.00,meteohub,2013-09-06 18:44:00,
2013-09-06 14:49:00,64.4,49.3,30.21,SSW,207,8.0,10.0,58,0.00,,,0.00,meteohub,2013-09-06 18:49:00,
2013-09-06 14:54:00,64.8,49.6,30.21,SSW,207,3.0,11.0,58,0.00,,,0.00,meteohub,2013-09-06 18:54:00,
2013-09-06 14:59:00,64.8,49.6,30.20,SW,214,6.0,11.0,58,0.00,,,0.00,meteohub,2013-09-06 18:59:00,
2013-09-06 15:04:00,65.1,50.9,30.20,SSW,193,9.0,12.0,60,0.00,,,0.00,meteohub,2013-09-06 19:04:00,
2013-09-06 15:09:00,65.1,50.0,30.19,South,174,5.0,13.0,58,0.00,,,0.00,meteohub,2013-09-06 19:09:00,
2013-09-06 15:14:00,65.1,49.5,30.19,SW,219,11.0,13.0,57,0.00,,,0.00,meteohub,2013-09-06 19:14:00,
2013-09-06 15:19:00,65.1,49.1,30.19,South,188,8.0,13.0,56,0.00,,,0.00,meteohub,2013-09-06 19:19:00,
2013-09-06 15:24:00,65.5,49.8,30.19,South,173,8.0,13.0,57,0.00,,,0.00,meteohub,2013-09-06 19:24:00,
2013-09-06 15:29:00,65.5,50.4,30.19,SSE,158,9.0,13.0,58,0.00,,,0.00,meteohub,2013-09-06 19:29:00,
2013-09-06 15:34:00,65.7,50.5,30.18,SSW,193,14.0,14.0,58,0.00,,,0.00,meteohub,2013-09-06 19:34:00,
2013-09-06 15:39:00,65.5,50.4,30.18,South,191,7.0,13.0,58,0.00,,,0.00,meteohub,2013-09-06 19:39:00,
2013-09-06 15:44:00,65.5,49.8,30.18,SSW,195,11.0,15.0,57,0.00,,,0.00,meteohub,2013-09-06 19:44:00,
2013-09-06 15:49:00,65.5,49.8,30.17,South,172,8.0,16.0,57,0.00,,,0.00,meteohub,2013-09-06 19:49:00,
2013-09-06 15:54:00,65.7,50.9,30.17,SSW,212,14.0,16.0,59,0.00,,,0.00,meteohub,2013-09-06 19:54:00,
2013-09-06 15:59:00,65.5,50.4,30.17,SSW,212,13.0,16.0,58,0.00,,,0.00,meteohub,2013-09-06 19:59:00,
2013-09-06 16:04:00,65.5,51.6,30.17,SW,215,15.0,16.0,61,0.00,,,0.00,meteohub,2013-09-06 20:04:00,
2013-09-06 16:09:00,65.5,49.8,30.17,SSW,212,12.0,16.0,57,0.00,,,0.00,meteohub,2013-09-06 20:09:00,
2013-09-06 16:14:00,65.7,50.9,30.17,SSW,210,8.0,16.0,59,0.00,,,0.00,meteohub,2013-09-06 20:14:00,
2013-09-06 16:19:00,65.8,50.7,30.17,SSW,204,13.0,16.0,58,0.00,,,0.00,meteohub,2013-09-06 20:19:00,
2013-09-06 16:24:00,65.8,51.1,30.17,SW,214,11.0,16.0,59,0.00,,,0.00,meteohub,2013-09-06 20:24:00,
2013-09-06 16:29:00,66.0,51.3,30.17,West,276,5.0,17.0,59,0.00,,,0.00,meteohub,2013-09-06 20:29:00,
2013-09-06 16:34:00,65.8,49.3,30.17,SW,214,11.0,17.0,55,0.00,,,0.00,meteohub,2013-09-06 20:34:00,
2013-09-06 16:40:00,65.5,49.3,30.17,SW,215,10.0,17.0,56,0.00,,,0.00,meteohub,2013-09-06 20:40:00,
2013-09-06 16:45:00,65.5,50.4,30.17,SW,235,11.0,15.0,58,0.00,,,0.00,meteohub,2013-09-06 20:45:00,
2013-09-06 16:50:00,65.7,50.0,30.17,SW,226,6.0,15.0,57,0.00,,,0.00,meteohub,2013-09-06 20:50:00,
2013-09-06 16:55:00,65.8,49.3,30.17,SW,221,8.0,15.0,55,0.00,,,0.00,meteohub,2013-09-06 20:55:00,
2013-09-06 17:00:00,65.7,49.1,30.17,South,187,13.0,13.0,55,0.00,,,0.00,meteohub,2013-09-06 21:00:00,
2013-09-06 17:05:00,65.8,48.2,30.17,SW,231,7.0,15.0,53,0.00,,,0.00,meteohub,2013-09-06 21:05:00,
2013-09-06 17:10:00,66.0,48.9,30.17,SSW,202,8.0,15.0,54,0.00,,,0.00,meteohub,2013-09-06 21:10:00,
2013-09-06 17:15:00,65.8,48.7,30.17,WSW,239,6.0,15.0,54,0.00,,,0.00,meteohub,2013-09-06 21:15:00,
2013-09-06 17:20:00,66.2,49.1,30.16,WSW,255,6.0,14.0,54,0.00,,,0.00,meteohub,2013-09-06 21:20:00,
2013-09-06 17:25:00,66.0,49.5,30.16,WSW,250,2.0,12.0,55,0.00,,,0.00,meteohub,2013-09-06 21:25:00,
2013-09-06 17:30:00,66.0,48.9,30.16,SW,225,5.0,12.0,54,0.00,,,0.00,meteohub,2013-09-06 21:30:00,
2013-09-06 17:35:00,66.2,49.1,30.16,SSW,200,6.0,11.0,54,0.00,,,0.00,meteohub,2013-09-06 21:35:00,
2013-09-06 17:40:00,66.0,49.5,30.16,SW,235,3.0,11.0,55,0.00,,,0.00,meteohub,2013-09-06 21:40:00,
2013-09-06 17:45:00,65.8,49.6,30.16,SW,232,6.0,11.0,56,0.00,,,0.00,meteohub,2013-09-06 21:45:00,
2013-09-06 17:50:00,65.8,50.7,30.16,SW,221,5.0,11.0,58,0.00,,,0.00,meteohub,2013-09-06 21:50:00,
2013-09-06 17:55:00,65.8,50.7,30.16,WSW,255,4.0,12.0,58,0.00,,,0.00,meteohub,2013-09-06 21:55:00,
2013-09-06 18:00:00,65.8,50.7,30.16,SW,225,7.0,12.0,58,0.00,,,0.00,meteohub,2013-09-06 22:00:00,
2013-09-06 18:05:00,65.7,50.5,30.16,SSW,208,5.0,12.0,58,0.00,,,0.00,meteohub,2013-09-06 22:05:00,
2013-09-06 18:10:00,65.7,50.9,30.16,SW,221,8.0,11.0,59,0.00,,,0.00,meteohub,2013-09-06 22:10:00,
2013-09-06 18:15:00,65.5,50.7,30.16,WSW,242,2.0,9.0,59,0.00,,,0.00,meteohub,2013-09-06 22:15:00,
2013-09-06 18:20:00,65.5,51.3,30.16,West,260,3.0,9.0,60,0.00,,,0.00,meteohub,2013-09-06 22:20:00,
2013-09-06 18:25:00,65.1,50.4,30.16,SW,217,5.0,9.0,59,0.00,,,0.00,meteohub,2013-09-06 22:25:00,
2013-09-06 18:30:00,64.9,50.7,30.16,WSW,240,8.0,8.0,60,0.00,,,0.00,meteohub,2013-09-06 22:30:00,
2013-09-06 18:35:00,64.8,51.1,30.16,SW,235,1.0,9.0,61,0.00,,,0.00,meteohub,2013-09-06 22:35:00,
2013-09-06 18:40:00,64.6,50.4,30.16,WSW,240,3.0,12.0,60,0.00,,,0.00,meteohub,2013-09-06 22:40:00,
2013-09-06 18:45:00,64.2,50.5,30.16,WSW,257,2.0,12.0,61,0.00,,,0.00,meteohub,2013-09-06 22:45:00,
2013-09-06 18:50:00,64.0,50.7,30.16,WNW,284,1.0,12.0,62,0.00,,,0.00,meteohub,2013-09-06 22:50:00,
2013-09-06 18:55:00,63.7,50.9,30.16,SW,228,0.0,8.0,63,0.00,,,0.00,meteohub,2013-09-06 22:55:00,
2013-09-06 19:00:00,63.1,50.7,30.16,SW,235,3.0,6.0,64,0.00,,,0.00,meteohub,2013-09-06 23:00:00,
2013-09-06 19:05:00,62.6,51.1,30.16,WSW,252,1.0,6.0,66,0.00,,,0.00,meteohub,2013-09-06 23:05:00,
2013-09-06 19:10:00,62.2,51.1,30.16,West,281,0.0,6.0,67,0.00,,,0.00,meteohub,2013-09-06 23:10:00,
2013-09-06 19:15:00,61.9,51.3,30.16,West,276,0.0,5.0,68,0.00,,,0.00,meteohub,2013-09-06 23:15:00,
2013-09-06 19:20:00,61.3,51.1,30.16,WNW,301,0.0,4.0,69,0.00,,,0.00,meteohub,2013-09-06 23:20:00,
2013-09-06 19:25:00,61.2,51.3,30.16,WNW,294,0.0,3.0,70,0.00,,,0.00,meteohub,2013-09-06 23:25:00,
2013-09-06 19:30:00,61.0,51.4,30.16,WSW,257,0.0,3.0,71,0.00,,,0.00,meteohub,2013-09-06 23:30:00,
2013-09-06 19:35:00,60.6,51.6,30.16,WNW,297,0.0,2.0,72,0.00,,,0.00,meteohub,2013-09-06 23:35:00,
2013-09-06 19:40:00,60.3,51.6,30.15,WNW,302,0.0,2.0,73,0.00,,,0.00,meteohub,2013-09-06 23:40:00,
2013-09-06 19:45:00,60.1,51.8,30.16,WNW,295,0.0,1.0,74,0.00,,,0.00,meteohub,2013-09-06 23:45:00,
2013-09-06 19:50:00,59.7,51.4,30.16,WNW,296,0.0,1.0,74,0.00,,,0.00,meteohub,2013-09-06 23:50:00,
2013-09-06 19:55:00,59.4,51.4,30.16,West,279,0.0,1.0,75,0.00,,,0.00,meteohub,2013-09-06 23:55:00,
2013-09-06 20:00:00,59.0,51.4,30.16,WNW,289,0.0,1.0,76,0.00,,,0.00,meteohub,2013-09-07 00:00:00,
2013-09-06 20:05:00,58.6,51.4,30.16,WNW,289,0.0,1.0,77,0.00,,,0.00,meteohub,2013-09-07 00:05:00,
2013-09-06 20:10:00,58.5,51.6,30.16,WNW,290,0.0,1.0,78,0.00,,,0.00,meteohub,2013-09-07 00:10:00,
2013-09-06 20:15:00,58.3,51.4,30.17,WNW,290,0.0,1.0,78,0.00,,,0.00,meteohub,2013-09-07 00:15:00,
2013-09-06 20:20:00,58.1,51.3,30.17,WNW,287,0.0,1.0,78,0.00,,,0.00,meteohub,2013-09-07 00:20:00,
2013-09-06 20:25:00,57.9,51.4,30.17,WNW,300,0.0,1.0,79,0.00,,,0.00,meteohub,2013-09-07 00:25:00,
2013-09-06 20:30:00,57.7,51.3,30.17,WNW,295,0.0,1.0,79,0.00,,,0.00,meteohub,2013-09-07 00:30:00,
2013-09-06 20:35:00,57.7,51.3,30.17,WNW,293,0.0,1.0,79,0.00,,,0.00,meteohub,2013-09-07 00:35:00,
2013-09-06 20:40:00,57.4,50.9,30.17,WNW,288,0.0,1.0,79,0.00,,,0.00,meteohub,2013-09-07 00:40:00,
2013-09-06 20:45:00,56.8,50.7,30.17,WNW,289,0.0,1.0,80,0.00,,,0.00,meteohub,2013-09-07 00:45:00,
2013-09-06 20:50:00,56.1,50.7,30.17,NW,312,0.0,0.0,82,0.00,,,0.00,meteohub,2013-09-07 00:50:00,
2013-09-06 20:55:00,55.6,50.5,30.17,NW,310,0.0,0.0,83,0.00,,,0.00,meteohub,2013-09-07 00:55:00,
2013-09-06 21:00:00,55.4,50.9,30.17,NW,311,0.0,0.0,85,0.00,,,0.00,meteohub,2013-09-07 01:00:00,
2013-09-06 21:05:00,55.2,51.1,30.17,NW,310,0.0,0.0,86,0.00,,,0.00,meteohub,2013-09-07 01:05:00,
2013-09-06 21:10:00,54.9,51.1,30.17,SE,129,0.0,0.0,87,0.00,,,0.00,meteohub,2013-09-07 01:10:00,
2013-09-06 21:15:00,54.3,50.9,30.17,ESE,122,0.0,0.0,88,0.00,,,0.00,meteohub,2013-09-07 01:15:00,
2013-09-06 21:20:00,54.0,50.7,30.16,ESE,123,0.0,0.0,89,0.00,,,0.00,meteohub,2013-09-07 01:20:00,
2013-09-06 21:25:00,54.0,51.1,30.16,ESE,122,0.0,0.0,90,0.00,,,0.00,meteohub,2013-09-07 01:25:00,
2013-09-06 21:30:00,54.0,51.1,30.16,ESE,122,0.0,0.0,90,0.00,,,0.00,meteohub,2013-09-07 01:30:00,
2013-09-06 21:35:00,53.8,50.9,30.16,ESE,122,0.0,0.0,90,0.00,,,0.00,meteohub,2013-09-07 01:35:00,
2013-09-06 21:40:00,53.8,50.9,30.16,ESE,122,0.0,0.0,90,0.00,,,0.00,meteohub,2013-09-07 01:40:00,
2013-09-06 21:45:00,53.8,50.9,30.16,ESE,123,0.0,0.0,90,0.00,,,0.00,meteohub,2013-09-07 01:45:00,
2013-09-06 21:50:00,53.8,51.3,30.16,ESE,122,0.0,0.0,91,0.00,,,0.00,meteohub,2013-09-07 01:50:00,
2013-09-06 21:55:00,53.4,50.9,30.16,ESE,122,0.0,0.0,91,0.00,,,0.00,meteohub,2013-09-07 01:55:00,
2013-09-06 22:00:00,53.2,50.7,30.16,ESE,122,0.0,0.0,91,0.00,,,0.00,meteohub,2013-09-07 02:00:00,
2013-09-06 22:05:00,52.9,50.5,30.15,ESE,122,0.0,0.0,92,0.00,,,0.00,meteohub,2013-09-07 02:05:00,
2013-09-06 22:10:00,52.9,50.5,30.15,ESE,122,0.0,0.0,92,0.00,,,0.00,meteohub,2013-09-07 02:10:00,
2013-09-06 22:15:00,52.5,50.2,30.15,ESE,122,0.0,0.0,92,0.00,,,0.00,meteohub,2013-09-07 02:15:00,
2013-09-06 22:20:00,52.3,50.4,30.16,ESE,122,0.0,0.0,93,0.00,,,0.00,meteohub,2013-09-07 02:20:00,
2013-09-06 22:25:00,52.2,50.2,30.16,ESE,122,0.0,0.0,93,0.00,,,0.00,meteohub,2013-09-07 02:25:00,
2013-09-06 22:30:00,52.2,50.5,30.16,ESE,123,0.0,0.0,94,0.00,,,0.00,meteohub,2013-09-07 02:30:00,
2013-09-06 22:35:00,52.2,50.5,30.15,ESE,122,0.0,0.0,94,0.00,,,0.00,meteohub,2013-09-07 02:35:00,
2013-09-06 22:40:00,52.0,50.4,30.15,ESE,123,0.0,0.0,94,0.00,,,0.00,meteohub,2013-09-07 02:40:00,
2013-09-06 22:45:00,51.8,50.2,30.15,ESE,122,0.0,0.0,94,0.00,,,0.00,meteohub,2013-09-07 02:45:00,
2013-09-06 22:50:00,51.6,50.0,30.15,ESE,122,0.0,0.0,94,0.00,,,0.00,meteohub,2013-09-07 02:50:00,
2013-09-06 22:55:00,51.6,50.2,30.15,ESE,122,0.0,0.0,95,0.00,,,0.00,meteohub,2013-09-07 02:55:00,
2013-09-06 23:00:00,51.4,50.0,30.15,ESE,123,0.0,0.0,95,0.00,,,0.00,meteohub,2013-09-07 03:00:00,
2013-09-06 23:05:00,51.4,50.0,30.15,ESE,122,0.0,0.0,95,0.00,,,0.00,meteohub,2013-09-07 03:05:00,
2013-09-06 23:10:00,51.3,49.8,30.15,ESE,123,0.0,0.0,95,0.00,,,0.00,meteohub,2013-09-07 03:10:00,
2013-09-06 23:15:00,51.3,49.8,30.15,ESE,122,0.0,0.0,95,0.00,,,0.00,meteohub,2013-09-07 03:15:00,
2013-09-06 23:20:00,51.1,49.6,30.14,ESE,122,0.0,0.0,95,0.00,,,0.00,meteohub,2013-09-07 03:20:00,
2013-09-06 23:25:00,50.9,49.5,30.14,ESE,123,0.0,0.0,95,0.00,,,0.00,meteohub,2013-09-07 03:25:00,
2013-09-06 23:30:00,50.7,49.6,30.14,ESE,122,0.0,0.0,96,0.00,,,0.00,meteohub,2013-09-07 03:30:00,
2013-09-06 23:35:00,50.7,49.6,30.14,ESE,123,0.0,0.0,96,0.00,,,0.00,meteohub,2013-09-07 03:35:00,
2013-09-06 23:40:00,50.7,49.6,30.14,ESE,122,0.0,0.0,96,0.00,,,0.00,meteohub,2013-09-07 03:40:00,
2013-09-06 23:45:00,50.7,49.6,30.14,ESE,123,0.0,0.0,96,0.00,,,0.00,meteohub,2013-09-07 03:45:00,
2013-09-06 23:50:00,50.7,49.6,30.14,ESE,122,0.0,0.0,96,0.00,,,0.00,meteohub,2013-09-07 03:50:00,
2013-09-06 23:55:00,50.5,49.5,30.14,ESE,122,0.0,0.0,96,0.00,,,0.00,meteohub,2013-09-07 03:55:00,